FW6820 Weather Reports


Display with metric or nautical units.
time (UTC)temp
F
wind
direction
speed
MPH
gust
MPH
rain 1hr
in
rain 24hr
in
rain mn
in
humidity
%
barometer
mb
20260507124542 80 35 2.0 7.0 0.00 0.00 0.00 90 1011.0
20260507123044 80 67 2.0 9.0 0.00 0.00 0.00 90 1010.8
20260507121540 80 118 3.0 7.0 0.00 0.00 0.00 90 1010.6
20260507120039 80 59 2.0 5.0 0.00 0.00 0.00 90 1010.7
20260507114536 80 61 3.0 6.0 0.00 0.00 0.00 90 1010.5
20260507113044 80 32 2.0 9.0 0.00 0.00 0.00 90 1010.3
20260507111544 80 66 1.0 8.0 0.00 0.00 0.00 90 1010.2
20260507110038 80 24 5.0 10.0 0.00 0.00 0.00 90 1009.7
20260507104540 80 26 3.0 8.0 0.00 0.00 0.00 89 1009.8
20260507103039 80 15 7.0 10.0 0.00 0.00 0.00 89 1009.6
20260507101544 81 46 3.0 9.0 0.00 0.00 0.00 88 1010.1
20260507100045 81 5 3.0 8.0 0.00 0.00 0.00 88 1010.3
20260507094546 81 12 5.0 10.0 0.00 0.00 0.00 87 1009.7
20260507093044 81 12 2.0 8.0 0.00 0.00 0.00 87 1009.7
20260507091538 81 20 3.0 7.0 0.00 0.00 0.00 86 1009.8
20260507090040 81 76 1.0 10.0 0.00 0.00 0.00 86 1009.8
20260507084545 81 108 3.0 9.0 0.00 0.00 0.00 86 1009.3
20260507083040 82 69 1.0 5.0 0.00 0.00 0.00 86 1009.7
20260507081539 82 82 0.0 3.0 0.00 0.00 0.00 86 1010.3
20260507080043 82 0 1.0 3.0 0.00 0.00 0.00 86 1010.3
20260507074535 82 0 0.0 2.0 0.00 0.00 0.00 86 1010.5
20260507073035 82 0 0.0 2.0 0.00 0.00 0.00 86 1010.6
20260507071542 82 86 1.0 3.0 0.00 0.00 0.00 85 1010.1
20260507070038 82 0 1.0 2.0 0.00 0.00 0.00 85 1010.3
20260507064538 82 89 1.0 3.0 0.00 0.00 0.00 85 1010.2
20260507063046 82 0 0.0 3.0 0.00 0.00 0.00 85 1010.5
20260507061543 82 73 1.0 3.0 0.00 0.00 0.00 85 1010.2
20260507060051 82 0 1.0 3.0 0.00 0.00 0.00 84 1010.3
20260507054547 82 86 1.0 6.0 0.00 0.00 0.00 84 1010.4
20260507053041 83 0 2.0 7.0 0.00 0.00 0.00 83 1010.4
20260507051540 83 0 0.0 6.0 0.00 0.00 0.00 83 1010.3
20260507050038 83 117 2.0 8.0 0.00 0.00 0.00 82 1010.4
20260507044548 83 103 2.0 6.0 0.00 0.00 0.00 82 1010.1
20260507043041 83 113 3.0 8.0 0.00 0.00 0.00 82 1010.0
20260507041541 84 110 3.0 9.0 0.00 0.00 0.00 81 1009.8
20260507040040 84 139 5.0 12.0 0.00 0.00 0.00 80 1009.7
20260507034542 85 127 4.0 10.0 0.00 0.00 0.00 79 1009.3
20260507033044 85 107 4.0 11.0 0.00 0.00 0.00 78 1009.2
20260507031538 86 126 3.0 9.0 0.00 0.00 0.00 77 1009.1
20260507030038 86 110 5.0 12.0 0.00 0.00 0.00 76 1008.9
20260507024540 87 102 3.0 15.0 0.00 0.00 0.00 75 1008.5
20260507023040 87 132 6.0 13.0 0.00 0.00 0.00 73 1008.1
20260507021540 88 123 4.0 10.0 0.00 0.00 0.00 72 1007.7
20260507020047 88 102 6.0 10.0 0.00 0.00 0.00 73 1007.4
20260507014544 89 93 4.0 11.0 0.00 0.00 0.00 75 1006.9
20260507013036 89 0 5.0 13.0 0.00 0.00 0.00 74 1006.7
20260507011543 90 94 7.0 15.0 0.00 0.00 0.00 72 1006.3
20260507010045 91 85 7.0 15.0 0.00 0.00 0.00 72 1006.0
20260507004539 92 94 5.0 14.0 0.00 0.00 0.00 69 1005.8
20260507003038 94 95 7.0 17.0 0.00 0.00 0.00 66 1005.4
20260507001544 96 68 5.0 13.0 0.00 0.00 0.00 58 1005.1
20260507000051 97 41 3.0 9.0 0.00 0.00 0.00 56 1005.0
20260506234542 98 37 4.0 10.0 0.00 0.00 0.00 55 1004.8
20260506233040 98 39 4.0 11.0 0.00 0.00 0.00 55 1004.8
20260506231540 98 26 5.0 13.0 0.00 0.00 0.00 56 1004.7
20260506230049 98 38 3.0 13.0 0.00 0.00 0.00 56 1004.5
20260506224556 99 20 5.0 11.0 0.00 0.00 0.00 55 1004.6
20260506223041 99 32 7.0 13.0 0.00 0.00 0.00 55 1004.6
20260506221538 100 42 4.0 11.0 0.00 0.00 0.00 54 1004.6
20260506220039 99 360 7.0 15.0 0.00 0.00 0.00 54 1004.7
20260506214534 100 52 5.0 12.0 0.00 0.00 0.00 55 1004.8
20260506213044 99 34 4.0 11.0 0.00 0.00 0.00 56 1004.9
20260506211540 100 360 4.0 14.0 0.00 0.00 0.00 54 1004.9
20260506210041 99 80 4.0 10.0 0.00 0.00 0.00 56 1005.0
20260506204534 98 55 3.0 10.0 0.00 0.00 0.00 57 1005.3
20260506203047 97 348 3.0 9.0 0.00 0.00 0.00 57 1005.4
20260506201543 98 5 4.0 10.0 0.00 0.00 0.00 57 1005.5
20260506200038 97 5 5.0 11.0 0.00 0.00 0.00 58 1005.6
20260506194555 97 5 2.0 8.0 0.00 0.00 0.00 59 1005.8
20260506193037 95 104 1.0 5.0 0.00 0.00 0.00 62 1006.0
20260506191545 94 105 2.0 8.0 0.00 0.00 0.00 64 1006.3
20260506190044 93 320 2.0 9.0 0.00 0.00 0.00 63 1006.5
20260506184539 93 323 1.0 6.0 0.00 0.00 0.00 65 1006.6
20260506183038 91 327 2.0 6.0 0.00 0.00 0.00 67 1006.8
20260506181545 91 170 1.0 8.0 0.00 0.00 0.00 67 1007.0
20260506180048 91 171 5.0 11.0 0.00 0.00 0.00 67 1006.9
20260506174540 90 98 4.0 10.0 0.00 0.00 0.00 70 1007.1
20260506173045 89 136 5.0 12.0 0.00 0.00 0.00 70 1007.3
20260506171551 88 110 8.0 12.0 0.00 0.00 0.00 71 1007.3
20260506170040 87 132 9.0 14.0 0.00 0.00 0.00 72 1007.4
20260506164541 87 130 6.0 14.0 0.00 0.00 0.00 73 1007.4
20260506163043 87 145 7.0 14.0 0.00 0.00 0.00 73 1007.4
20260506161540 86 132 7.0 12.0 0.00 0.00 0.00 74 1007.1
20260506160041 85 153 8.0 14.0 0.00 0.00 0.00 75 1007.2
20260506154608 84 130 5.0 12.0 0.00 0.00 0.00 77 1007.3
20260506153043 83 134 7.0 12.0 0.00 0.00 0.00 78 1007.3
20260506151541 82 163 5.0 13.0 0.00 0.00 0.00 80 1007.4
20260506150042 82 136 6.0 11.0 0.00 0.00 0.00 81 1007.4
20260506144547 81 146 5.0 14.0 0.00 0.00 0.00 83 1007.6
20260506143034 80 153 7.0 14.0 0.00 0.00 0.00 83 1007.8
20260506141541 80 132 8.0 11.0 0.00 0.00 0.00 83 1007.9
20260506140055 80 132 5.0 10.0 0.00 0.00 0.00 84 1007.6
20260506134542 80 137 3.0 9.0 0.00 0.00 0.00 85 1007.7
20260506133045 80 134 3.0 7.0 0.00 0.00 0.00 86 1007.7
20260506131543 79 142 3.0 9.0 0.00 0.00 0.00 86 1007.8
20260506130045 80 135 1.0 4.0 0.00 0.00 0.00 86 1007.7